Powrót do katalogu

BREEZE-M R/B

AktywnyHEO
NORAD 45987·ROCKET BODY·🇷🇺 Russia

Wystrzelony Jul 30, 2020 z Baikonur Cosmodrome

Loading…

Następne Przeloty (najbliższe 24 godziny)

TLE

ŚwieżeSource: Space-Track

Epoka: Sep 14, 2026, 01:21 UTC

1 45987U 20053C   26257.05665357 -.00000284  00000-0  00000-0 0  9997
2 45987   7.6877  75.7891 4343740  83.8723 322.9004  1.03581258 23168

Śledź BREEZE-M R/B w czasie rzeczywistym z AllMySat

Download on the App Store